FW9766 Weather Reports


Display with metric or nautical units.
time (UTC)temp
F
wind
direction
speed
MPH
gust
MPH
rain 1hr
in
rain 24hr
in
rain mn
in
humidity
%
barometer
mb
20260504231541 79 111 7.0 17.0 0.00 0.00 0.00 67 1010.8
20260504230048 79 59 8.0 16.0 0.00 0.00 0.00 66 1010.9
20260504224553 79 105 8.0 15.0 0.00 0.00 0.00 67 1011.0
20260504223042 78 139 6.0 15.0 0.00 0.00 0.00 67 1011.1
20260504221549 79 61 7.0 15.0 0.00 0.00 0.00 67 1011.3
20260504220056 79 132 10.0 16.0 0.00 0.00 0.00 66 1011.3
20260504214546 79 106 7.0 20.0 0.00 0.00 0.00 67 1011.5
20260504213058 78 14 5.0 16.0 0.00 0.00 0.00 67 1011.6
20260504211551 78 100 8.0 17.0 0.00 0.00 0.00 68 1011.8
20260504210048 78 109 9.0 19.0 0.00 0.00 0.00 67 1012.0
20260504204555 77 50 8.0 15.0 0.00 0.00 0.00 68 1012.4
20260504203048 78 119 8.0 15.0 0.00 0.00 0.00 68 1012.7
20260504201541 77 65 8.0 15.0 0.00 0.00 0.00 69 1012.9
20260504200049 76 94 7.0 19.0 0.00 0.00 0.00 70 1013.1
20260504194541 76 96 6.0 17.0 0.00 0.00 0.00 69 1013.4
20260504193059 76 107 7.0 18.0 0.00 0.00 0.00 70 1013.6
20260504191545 77 95 9.0 16.0 0.00 0.00 0.00 71 1013.6
20260504190042 76 123 9.0 19.0 0.00 0.00 0.00 71 1013.8
20260504184549 76 108 8.0 17.0 0.00 0.00 0.00 70 1013.9
20260504183057 76 129 6.0 15.0 0.00 0.00 0.00 71 1014.1
20260504181548 75 94 7.0 16.0 0.00 0.00 0.00 72 1014.1
20260504180127 75 118 7.0 16.0 0.00 0.00 0.00 72 1014.4
20260504174545 73 77 5.0 16.0 0.00 0.00 0.00 75 1014.6
20260504173049 72 128 6.0 17.0 0.00 0.00 0.00 75 1014.8
20260504171551 71 121 8.0 16.0 0.00 0.00 0.00 79 1015.1
20260504081545 60 90 3.0 12.0 0.00 0.00 0.00 86 1016.5
20260504044545 60 78 1.0 3.0 0.00 0.00 0.00 74 1018.3
20260504043055 60 0 0.0 0.0 0.00 0.00 0.00 74 1018.2
20260504041545 61 0 0.0 0.0 0.00 0.00 0.00 72 1018.1
20260504040054 61 0 0.0 1.0 0.00 0.00 0.00 72 1018.1
20260504034552 61 0 0.0 0.0 0.00 0.00 0.00 72 1018.2
20260504033053 62 0 0.0 0.0 0.00 0.00 0.00 72 1018.3
20260504031547 62 0 0.0 0.0 0.00 0.00 0.00 70 1018.3
20260504030049 62 0 0.0 0.0 0.00 0.00 0.00 70 1018.3
20260504024542 62 0 0.0 1.0 0.00 0.00 0.00 70 1018.2
20260504023049 63 0 0.0 2.0 0.00 0.00 0.00 68 1018.4
20260504021548 63 0 0.0 3.0 0.00 0.00 0.00 67 1018.3
20260504020059 64 0 0.0 2.0 0.00 0.00 0.00 65 1018.2
20260504014551 65 0 0.0 1.0 0.00 0.00 0.00 62 1018.2
20260504013047 67 51 0.0 3.0 0.00 0.00 0.00 60 1018.2
20260504011545 68 0 0.0 3.0 0.00 0.00 0.00 59 1018.1
20260504010047 69 62 1.0 6.0 0.00 0.00 0.00 56 1018.0
20260504004548 70 67 2.0 8.0 0.00 0.00 0.00 54 1018.0
20260504003049 71 57 3.0 13.0 0.00 0.00 0.00 52 1018.0
20260504001548 72 93 3.0 10.0 0.00 0.00 0.00 50 1018.0
20260504000052 73 57 5.0 14.0 0.00 0.00 0.00 47 1018.1
20260503234543 74 86 4.0 13.0 0.00 0.00 0.00 47 1018.3
20260503233048 75 79 4.0 13.0 0.00 0.00 0.00 46 1018.3